Location: Chiroubles
(46.1812°N, 4.6660°E)
Time: 23:04:55
(UTC+00:00)

Vanguard 1 Rocket - Visible Passes

Search period start: 05 December 2020 00:00
Search period end: 15 December 2020 00:00
Orbit: 655 x 4221 km, 34.3° (Epoch: 05 December)

Date Brightness Start Highest point End Pass type
(mag) Time Alt. Az. Time Alt. Az. Time Alt. Az.
05 Dec 10.7 01:05:00 45° ESE 01:05:00 45° ESE 01:16:48 10° E visible
05 Dec 10.3 03:22:16 50° SW 03:27:15 55° SSW 03:42:43 10° SE visible
05 Dec 10.5 05:39:33 14° W 05:54:11 31° SW 06:04:58 10° SSE visible
05 Dec 11.4 20:55:37 10° S 20:58:01 14° S 20:58:01 14° S visible
05 Dec 11.2 23:57:41 26° E 23:57:41 26° E 00:04:06 10° E visible
06 Dec 10.3 02:14:57 59° S 02:14:57 59° S 02:31:29 10° ESE visible
06 Dec 10.4 04:32:13 30° WSW 04:42:18 43° SSW 04:55:37 10° SSE visible
06 Dec 11.3 19:47:50 10° SSE 19:50:52 14° SSE 19:50:52 14° SSE visible
06 Dec 11.5 22:07:08 10° SSW 22:50:22 10° E 22:50:32 10° E visible
07 Dec 10.7 01:07:38 45° SE 01:07:38 45° SE 01:19:32 10° ESE visible
07 Dec 10.3 03:24:55 48° SW 03:29:25 53° SSW 03:45:18 10° SE visible
07 Dec 10.7 05:42:12 13° W 05:56:00 27° SW 06:06:45 10° S visible
07 Dec 11.2 20:56:40 10° SSW 21:01:03 19° S 21:01:03 19° S visible
08 Dec 11.2 00:00:21 26° ESE 00:00:21 26° ESE 00:06:49 10° E visible
08 Dec 10.4 02:17:37 58° S 02:17:37 58° S 02:34:09 10° ESE visible
08 Dec 10.5 04:34:54 29° WSW 04:44:15 39° SW 04:57:50 10° SSE visible
08 Dec 11.1 19:47:52 10° S 19:53:57 19° SSE 19:53:57 19° SSE visible
08 Dec 11.4 22:08:58 10° SW 22:53:04 10° E 22:53:15 10° E visible
09 Dec 10.7 01:10:21 44° SE 01:10:21 44° SE 01:22:13 10° ESE visible
09 Dec 10.4 03:27:38 47° SW 03:31:29 49° SSW 03:47:44 10° SE visible
09 Dec 10.9 05:44:55 12° W 05:57:40 22° SW 06:08:06 10° S visible
09 Dec 11.2 18:42:42 10° SE 18:46:52 13° SE 18:46:52 13° SE visible
09 Dec 11.0 20:58:10 10° SSW 21:04:09 24° S 21:04:09 24° S visible
10 Dec 11.2 00:03:06 26° ESE 00:03:06 26° ESE 00:09:27 10° E visible
10 Dec 10.4 02:20:23 55° S 02:20:23 55° S 02:36:42 10° ESE visible
10 Dec 10.6 04:37:40 27° WSW 04:46:02 34° SW 04:59:47 10° SSE visible
10 Dec 10.9 19:48:42 10° S 19:57:04 25° SSE 19:57:04 25° SSE visible
10 Dec 11.3 22:11:02 10° SW 22:55:53 10° E 22:14:22 19° SW visible
11 Dec 10.8 01:13:10 43° SE 01:13:10 43° SE 01:24:48 10° ESE visible
11 Dec 10.5 03:30:27 44° SW 03:33:25 45° SSW 03:49:58 10° SE visible
11 Dec 11.0 05:47:44 11° W 05:59:12 18° SW 06:08:45 10° SSW visible
11 Dec 11.0 18:41:29 10° SSE 18:50:00 17° SE 18:50:00 17° SE visible
11 Dec 10.9 20:59:58 10° SSW 21:07:17 29° SSW 21:07:17 29° SSW visible
12 Dec 11.3 00:05:58 25° ESE 00:05:58 25° ESE 00:12:02 10° ESE visible
12 Dec 10.5 02:23:15 52° S 02:23:15 52° S 02:39:07 10° SE visible
12 Dec 10.8 04:40:33 25° WSW 04:47:41 30° SW 05:01:23 10° S visible
12 Dec 10.7 19:50:04 10° SSW 20:00:13 31° SSE 20:00:13 31° SSE visible
12 Dec 11.2 22:13:19 10° SW 22:58:47 - E 22:17:31 22° SW visible
13 Dec 10.8 01:16:05 40° SE 01:16:05 40° SE 01:27:17 10° ESE visible
13 Dec 10.6 03:33:22 40° SW 03:35:12 41° SW 03:51:59 10° SSE visible
13 Dec 11.2 05:51:44 10° W 06:00:38 14° WSW 06:08:09 10° SW visible
13 Dec 10.9 18:41:47 10° S 18:53:07 22° SE 18:53:07 22° SE visible
13 Dec 10.7 21:02:03 10° SW 21:10:25 34° SSW 21:10:25 34° SSW visible
14 Dec 11.3 00:08:56 23° ESE 00:08:56 23° ESE 00:14:32 10° ESE visible
14 Dec 10.6 02:26:13 47° S 02:26:13 47° S 02:41:21 10° SE visible
14 Dec 11.0 04:43:31 23° WSW 04:49:13 25° SW 05:02:31 10° S visible
14 Dec 11.1 17:38:23 10° SE 17:42:12 11° ESE 17:46:01 10° ESE visible
14 Dec 10.5 19:51:50 10° SSW 20:03:19 36° SSE 20:03:19 36° SSE visible
14 Dec 11.1 22:15:44 10° WSW 23:01:49 - E 22:20:36 24° SW visible
